Temp
13 17 16 14 13 13 13 13 14 15 13 12 14 14 15 14 11 11 11 10 9 8 7 8 7 7 7 7 7 7 6 6 7 7 7 6 6 6 6 6 6 6 6 6
16 16 13 12 12 12 13 14 16 15 12 12 14 13 14 13 12 11 11 9 9 8 7 8 8 7 7 7 7 7 6 6 6 6 6 6 6 6 6 6 6 6 6 6
16 14 12 12 13 14 15 14 14 12 12 11 11 16 15 12 10 9 8 9 9 8 7 8 8 7 7 7 7 6 6 6 6 6 6 6 5 5 5 5 5 5 5 5
15 12 12 13 13 13 14 12 11 11 12 15 11 18 17 14 13 12 12 9 9 8 8 8 8 8 7 7 7 6 6 6 6 5 5 5 5 4 5 5 5 5 5 4
15 13 12 13 14 12 14 10 10 10 12 11 13 14 20 12 15 15 14 12 10 8 9 9 9 8 8 7 7 6 6 5 5 5 4 4 4 4 4 4 4 3 3 3
13 10 12 13 11 11 11 11 10 10 11 13 13 13 18 17 15 15 15 13 11 8 10 9 9 9 8 8 7 7 6 6 5 5 4 4 4 3 3 3 2 2 2 2
13 12 11 10 12 11 12 14 15 15 14 16 10 11 17 16 14 13 13 12 10 9 9 9 9 9 9 8 7 6 6 5 5 4 4 3 3 2 2 2 1 1 1 1
15 15 12 11 12 13 12 13 15 14 15 16 10 12 16 12 10 10 9 9 8 8 9 9 9 9 8 8 7 6 5 4 3 3 3 2 1 1 1 0 -0 -0 -0 -1
15 15 10 10 10 11 11 12 10 12 10 11 14 13 15 12 11 10 10 8 9 7 8 9 9 8 8 7 6 5 4 4 3 2 2 1 0 0 -0 -1 -1 -1 -1 -2
13 14 11 9 9 9 10 10 11 11 12 14 16 17 15 15 14 12 11 9 9 7 8 8 8 8 7 6 5 4 4 3 2 1 1 -0 -1 -1 -2 -2 -2 -3 -3 -3
12 12 12 9 10 12 9 10 9 9 10 12 13 16 15 14 14 13 13 10 8 6 6 6 6 7 6 6 5 4 3 2 1 0 -1 -2 -2 -2 -3 -3 -3 -3 -4 -4
11 12 12 14 9 9 10 12 12 12 12 8 10 12 16 13 12 10 11 9 7 5 5 5 5 6 6 5 5 4 3 1 -0 -1 -2 -2 -3 -3 -3 -4 -4 -4 -4 -5
10 11 12 14 9 8 9 10 10 10 7 8 9 12 12 11 11 10 10 8 6 5 5 5 4 4 5 4 4 4 1 -1 -2 -2 -3 -3 -4 -4 -4 -5 -5 -5 -6 -6
9 10 12 11 13 11 6 8 8 9 6 10 11 12 13 13 13 13 9 7 5 4 3 2 2 3 3 2 2 1 -0 -2 -3 -3 -4 -4 -5 -5 -5 -5 -6 -6 -7 -8
8 6 9 10 11 11 10 10 10 8 7 7 11 11 12 13 12 11 10 8 4 1 -0 -0 -0 -0 -0 -1 -0 -1 -2 -3 -4 -4 -5 -5 -5 -6 -6 -6 -7 -7 -8 -8
4 5 5 6 8 9 9 9 10 10 10 10 10 10 12 11 6 6 6 4 3 0 -2 -1 -2 -2 -3 -2 -2 -3 -4 -4 -5 -5 -6 -6 -6 -6 -7 -7 -8 -8 -9 -9
3 4 5 7 9 8 9 12 10 9 9 9 9 11 7 7 6 3 2 1 -0 -3 -2 -3 -3 -4 -4 -4 -4 -5 -5 -5 -6 -6 -7 -7 -7 -7 -8 -8 -9 -9 -9 -10
4 4 4 7 7 8 12 9 10 10 7 5 5 4 3 2 -0 -2 -3 -2 -3 -3 -4 -4 -5 -5 -5 -5 -6 -6 -7 -7 -7 -7 -8 -8 -8 -9 -9 -9 -10 -10 -10 -10
9 6 5 6 8 9 11 6 7 7 4 1 1 1 1 0 -0 -4 -4 -5 -5 -5 -5 -6 -6 -6 -7 -7 -7 -8 -8 -8 -8 -8 -9 -9 -9 -10 -10 -10 -10 -10 -10 -11
5 7 5 6 7 8 5 4 2 3 6 -2 -2 -3 -3 -1 2 -2 -5 -5 -6 -6 -7 -7 -7 -7 -8 -8 -8 -8 -9 -9 -9 -10 -10 -10 -10 -10 -11 -11 -11 -11 -11 -11
5 5 5 6 7 7 -3 -3 -1 5 1 -5 -5 -6 -5 -3 -5 -6 -6 -7 -7 -7 -7 -8 -8 -9 -9 -9 -9 -9 -9 -10 -10 -10 -11 -11 -11 -11 -11 -11 -11 -11 -12 -12
7 7 7 5 6 7 -5 -2 1 -5 -6 -8 -8 -8 -8 -8 -8 -8 -8 -8 -8 -8 -9 -9 -9 -10 -10 -10 -10 -10 -10 -11 -11 -11 -11 -11 -11 -11 -11 -12 -12 -12 -13 -13
7 5 6 2 -1 -6 -8 -7 -8 -8 -8 -9 -9 -10 -9 -9 -9 -10 -9 -9 -9 -10 -10 -10 -10 -10 -11 -11 -11 -11 -12 -12 -12 -12 -12 -12 -12 -12 -12 -12 -13 -13 -14 -14
-0 -5 -0 -2 -6 -8 -9 -9 -9 -10 -10 -10 -10 -10 -10 -10 -11 -10 -11 -11 -11 -12 -12 -12 -11 -11 -11 -12 -12 -12 -12 -12 -12 -12 -12 -12 -12 -12 -13 -13 -13 -14 -15 -15
-8 -6 -5 -4 -8 -8 -9 -10 -10 -10 -10 -11 -11 -11 -11 -12 -12 -12 -12 -12 -12 -13 -13 -13 -13 -13 -13 -13 -12 -12 -13 -13 -12 -13 -12 -12 -13 -13 -13 -13 -13 -14 -14 -14
-10 -10 -7 -6 -10 -10 -9 -11 -11 -11 -12 -12 -12 -12 -12 -13 -13 -13 -13 -13 -13 -13 -14 -14 -13 -13 -13 -13 -13 -13 -13 -13 -13 -13 -13 -13 -14 -14 -14 -14 -14 -14 -14 -15
Height
1537 1535 1537 1541 1542 1542 1542 1540 1536 1527 1531 1530 1514 1507 1503 1506 1507 1507 1507 1508 1509 1511 1517 1517 1519 1520 1520 1519 1519 1517 1516 1515 1513 1511 1509 1508 1507 1506 1504 1503 1502 1500 1499 1497
1537 1537 1543 1545 1545 1543 1541 1537 1526 1525 1532 1531 1512 1503 1496 1500 1501 1502 1503 1504 1505 1509 1509 1512 1514 1516 1516 1516 1516 1516 1514 1512 1512 1511 1509 1508 1506 1505 1504 1503 1501 1500 1498 1496
1536 1542 1544 1545 1543 1541 1533 1534 1531 1536 1529 1527 1522 1491 1492 1498 1500 1500 1499 1500 1502 1504 1507 1509 1511 1512 1512 1514 1514 1513 1512 1511 1510 1509 1508 1506 1505 1503 1502 1501 1500 1498 1497 1496
1539 1543 1543 1543 1541 1542 1534 1537 1539 1536 1531 1515 1524 1494 1486 1492 1493 1495 1495 1496 1498 1500 1503 1505 1507 1509 1510 1510 1510 1510 1510 1510 1509 1508 1507 1505 1504 1503 1501 1499 1498 1497 1496 1495
1537 1540 1541 1540 1537 1541 1533 1539 1537 1536 1531 1531 1518 1515 1474 1495 1488 1487 1490 1493 1497 1499 1501 1502 1503 1506 1508 1509 1509 1509 1508 1508 1505 1505 1504 1504 1503 1502 1500 1499 1498 1497 1495 1494
1539 1542 1541 1537 1539 1540 1538 1535 1535 1535 1530 1523 1517 1517 1482 1482 1485 1486 1488 1491 1494 1495 1496 1498 1500 1502 1503 1504 1505 1505 1505 1503 1503 1501 1501 1500 1499 1499 1499 1497 1496 1495 1493 1492
1537 1538 1539 1539 1537 1538 1535 1528 1518 1517 1516 1503 1525 1522 1484 1482 1486 1487 1487 1489 1491 1493 1495 1497 1498 1499 1500 1500 1500 1500 1500 1500 1499 1498 1497 1497 1497 1496 1496 1495 1495 1494 1494 1491
1534 1530 1535 1537 1535 1534 1536 1534 1527 1530 1514 1503 1525 1509 1482 1487 1488 1489 1489 1490 1489 1490 1491 1493 1494 1494 1495 1496 1496 1496 1496 1496 1497 1496 1495 1496 1495 1494 1493 1493 1492 1491 1491 1491
1532 1528 1535 1537 1537 1538 1537 1533 1538 1530 1533 1525 1496 1498 1487 1484 1484 1486 1488 1488 1488 1488 1488 1489 1490 1492 1492 1492 1492 1493 1492 1493 1494 1494 1493 1492 1492 1491 1490 1489 1491 1489 1488 1488
1532 1531 1533 1538 1539 1540 1536 1538 1535 1536 1526 1507 1480 1477 1481 1476 1479 1481 1482 1484 1486 1485 1485 1486 1487 1488 1489 1488 1488 1488 1489 1489 1490 1489 1489 1488 1488 1488 1488 1487 1488 1487 1485 1485
1535 1535 1531 1538 1532 1525 1536 1533 1536 1536 1530 1517 1500 1474 1473 1476 1478 1479 1479 1482 1483 1484 1485 1485 1484 1484 1485 1485 1485 1485 1485 1485 1485 1486 1485 1485 1485 1485 1485 1485 1485 1484 1483 1481
1533 1532 1526 1517 1527 1527 1525 1519 1522 1519 1515 1529 1514 1481 1469 1476 1479 1480 1479 1480 1481 1482 1481 1481 1482 1481 1481 1483 1481 1481 1481 1480 1480 1481 1482 1482 1482 1482 1482 1482 1481 1480 1479 1477
1533 1530 1524 1511 1527 1531 1526 1521 1518 1520 1527 1516 1512 1476 1471 1474 1476 1476 1475 1476 1476 1476 1476 1477 1478 1476 1476 1478 1477 1477 1476 1476 1476 1476 1478 1479 1480 1480 1479 1479 1478 1476 1475 1473
1532 1528 1521 1518 1507 1512 1527 1520 1517 1515 1520 1498 1487 1473 1463 1467 1469 1470 1471 1470 1468 1469 1471 1472 1475 1472 1473 1474 1473 1472 1471 1472 1472 1473 1475 1475 1476 1476 1475 1475 1474 1472 1470 1469
1533 1532 1524 1516 1510 1507 1503 1504 1501 1506 1498 1504 1473 1471 1469 1464 1463 1465 1466 1466 1469 1471 1472 1473 1472 1471 1471 1471 1471 1470 1468 1468 1469 1470 1472 1472 1472 1472 1472 1470 1469 1468 1466 1465
1530 1526 1526 1516 1508 1505 1496 1495 1488 1484 1484 1485 1475 1467 1466 1467 1467 1465 1466 1467 1469 1471 1471 1471 1472 1471 1472 1471 1470 1468 1467 1467 1467 1469 1469 1468 1468 1468 1467 1466 1465 1463 1462 1461
1527 1525 1520 1500 1497 1501 1488 1468 1472 1475 1475 1475 1473 1467 1473 1468 1468 1469 1469 1470 1471 1471 1471 1470 1471 1470 1470 1470 1470 1469 1468 1466 1465 1466 1467 1467 1464 1463 1463 1461 1460 1459 1459 1457
1515 1517 1516 1501 1500 1490 1462 1469 1468 1468 1480 1482 1482 1482 1482 1481 1478 1477 1475 1474 1473 1472 1471 1470 1470 1470 1469 1468 1467 1467 1468 1464 1464 1464 1463 1464 1462 1460 1459 1458 1457 1456 1454 1453
1498 1504 1504 1497 1488 1476 1463 1476 1476 1473 1486 1493 1490 1486 1482 1480 1478 1479 1479 1478 1478 1475 1471 1469 1469 1469 1468 1467 1467 1466 1465 1464 1461 1462 1460 1460 1458 1456 1456 1455 1453 1452 1451 1450
1497 1495 1499 1492 1485 1472 1481 1484 1483 1481 1471 1495 1495 1493 1488 1477 1472 1482 1481 1479 1477 1477 1476 1471 1468 1469 1468 1466 1465 1462 1460 1461 1460 1458 1457 1456 1454 1453 1451 1451 1449 1448 1447 1446
1493 1494 1490 1485 1476 1470 1495 1491 1484 1471 1489 1499 1498 1498 1495 1487 1491 1488 1482 1479 1478 1476 1476 1473 1468 1468 1467 1464 1461 1459 1456 1457 1457 1455 1454 1451 1449 1448 1447 1446 1444 1443 1442 1441
1482 1480 1476 1480 1473 1463 1499 1491 1487 1508 1503 1501 1500 1498 1494 1491 1489 1487 1481 1479 1478 1475 1473 1474 1467 1465 1463 1461 1458 1456 1454 1454 1453 1451 1449 1447 1445 1444 1442 1440 1439 1438 1437 1436
1475 1480 1476 1489 1497 1513 1512 1508 1509 1509 1506 1503 1500 1497 1492 1491 1488 1485 1480 1478 1476 1473 1471 1469 1465 1462 1460 1458 1454 1452 1452 1450 1448 1446 1444 1441 1440 1438 1436 1435 1433 1432 1432 1431
1488 1493 1490 1495 1513 1513 1514 1513 1509 1510 1507 1502 1500 1495 1492 1490 1486 1481 1478 1476 1473 1471 1469 1465 1461 1459 1457 1454 1451 1448 1447 1445 1442 1439 1437 1435 1434 1432 1430 1428 1427 1426 1426 1425
1509 1502 1504 1505 1513 1514 1509 1511 1512 1509 1504 1500 1498 1496 1492 1488 1485 1480 1476 1473 1471 1468 1465 1461 1458 1455 1453 1450 1447 1444 1441 1439 1435 1433 1430 1428 1427 1425 1423 1421 1420 1419 1419 1418
1516 1519 1513 1510 1517 1518 1514 1512 1509 1506 1503 1500 1498 1494 1490 1487 1483 1478 1475 1471 1468 1465 1462 1458 1455 1451 1448 1444 1441 1438 1436 1432 1429 1426 1424 1422 1420 1418 1416 1414 1413 1412 1411 1412
Wind_Speed
4 2 4 3 3 1 2 6 9 10 3 8 11 21 18 16 18 20 18 18 19 18 12 15 12 10 7 7 4 3 4 4 5 5 5 5 5 7 9 10 11 10 10 10
2 2 1 1 2 2 4 8 6 7 2 8 14 23 18 9 13 18 18 17 18 15 16 16 14 12 10 8 5 4 3 3 4 4 4 4 4 5 6 8 9 10 10 11
1 3 2 2 2 5 5 5 6 7 13 5 13 7 2 1 3 6 9 10 13 16 15 16 15 13 12 9 6 5 4 4 4 4 4 4 5 5 6 7 7 8 9 10
1 3 2 2 3 2 5 1 4 11 9 5 4 5 1 1 6 8 10 11 11 15 15 15 15 13 11 10 8 7 6 4 4 4 4 4 4 5 5 6 7 8 10 10
1 4 3 4 1 2 4 3 8 5 5 5 4 4 1 1 6 12 14 12 12 13 15 15 14 12 11 11 9 8 8 6 5 5 4 5 6 7 7 7 8 8 8 8
1 0 2 1 1 4 7 4 3 2 2 3 3 2 10 3 2 3 9 12 11 13 16 15 14 13 13 12 11 11 10 8 8 7 6 7 7 7 8 7 7 8 8 9
2 3 2 2 3 3 3 6 4 3 2 4 3 3 13 7 5 4 5 8 8 13 16 17 16 14 15 14 13 13 13 12 10 9 9 9 8 7 7 7 8 8 8 7
2 3 5 4 1 2 2 3 3 6 6 11 3 7 3 2 5 3 1 5 6 10 15 17 16 16 17 17 17 17 15 15 13 12 11 10 8 8 7 7 7 7 8 9
3 4 3 1 1 1 4 3 2 4 2 5 3 5 12 2 9 7 10 9 9 8 11 12 13 13 15 18 19 19 18 17 15 15 13 11 10 9 8 7 8 9 11 14
1 5 2 3 3 3 3 5 2 2 4 10 12 19 9 6 4 7 12 15 12 12 12 11 10 11 13 16 18 20 20 18 18 16 14 12 11 10 8 8 9 11 13 16
4 3 2 1 8 8 5 3 3 3 3 4 9 8 2 7 6 8 8 13 14 12 10 9 8 9 10 11 14 16 18 19 19 17 15 13 11 10 9 8 10 13 16 19
4 2 6 8 3 1 2 5 9 5 5 5 6 13 9 5 5 6 8 10 13 12 13 11 9 8 8 10 8 11 15 18 19 17 15 14 12 10 9 10 12 16 19 20
6 4 6 4 3 1 5 5 8 5 1 11 7 10 4 3 7 9 11 13 15 18 16 13 11 8 8 8 10 15 17 17 17 16 15 13 12 11 11 12 16 18 18 18
6 4 13 12 15 7 6 10 12 10 4 12 17 26 26 23 16 20 15 17 21 21 16 12 8 5 6 9 12 12 13 15 15 14 13 13 13 12 12 15 18 18 18 16
2 7 11 20 22 21 25 22 22 17 24 11 26 24 22 23 22 21 19 16 15 10 7 5 3 4 8 11 11 9 10 11 12 13 13 13 13 13 15 18 18 17 15 14
6 4 4 10 20 21 25 21 23 24 23 22 28 28 22 28 12 12 11 6 10 7 3 3 6 9 10 10 9 8 8 10 11 12 13 14 13 15 17 17 16 14 13 13
8 5 4 8 6 8 16 16 17 6 6 8 9 13 16 18 15 8 5 3 4 3 1 4 7 9 9 9 8 7 8 9 10 12 13 15 15 16 17 15 14 13 13 13
8 5 3 5 5 8 2 2 3 9 8 11 11 14 13 11 6 10 11 5 2 3 4 7 9 9 8 8 7 8 9 9 10 12 13 16 16 15 14 14 13 13 13 13
19 7 4 3 6 7 14 5 5 5 5 10 9 11 11 10 7 10 15 13 10 9 9 8 8 9 9 8 8 8 9 11 12 14 15 15 14 13 14 14 14 14 14 14
2 11 6 4 5 5 4 8 16 9 4 18 18 17 19 14 4 5 17 15 13 12 11 10 9 9 10 10 10 10 11 13 14 14 14 14 14 15 15 15 16 16 17 17
3 2 8 9 5 4 7 17 13 5 5 16 15 15 16 8 8 12 12 12 12 11 12 12 10 9 10 10 10 10 10 12 14 15 15 15 15 16 16 17 18 18 17 17
5 5 5 4 5 8 26 2 4 7 7 12 13 13 13 11 11 12 12 11 11 12 12 12 11 11 12 12 12 12 12 14 15 15 16 17 17 18 19 19 19 18 17 17
5 4 2 3 4 10 15 15 10 11 9 12 11 13 13 12 12 12 13 13 13 12 13 14 14 14 15 15 15 15 13 16 17 18 19 19 21 21 21 21 19 18 16 17
4 16 3 5 6 9 13 14 15 12 9 12 12 13 14 13 13 15 14 14 14 14 13 15 17 17 17 17 17 18 18 19 21 22 22 22 24 23 21 21 20 19 16 16
4 9 8 5 8 6 13 16 14 14 15 16 16 15 15 16 16 16 16 17 18 18 16 17 17 18 19 20 21 22 22 22 24 25 24 24 24 24 23 23 22 22 21 20
9 5 3 2 6 7 5 10 14 15 16 15 16 17 17 16 17 19 19 20 21 18 20 20 21 22 24 23 23 24 22 23 25 26 25 24 23 23 23 23 23 22 22 20
Wind_Direction
20 58 39 39 47 57 286 289 289 288 308 297 273 286 283 265 235 238 235 232 225 223 219 230 239 244 248 258 287 329 350 0 12 20 29 36 35 31 28 26 25 17 14 3
202 81 102 143 167 253 261 295 315 292 273 309 306 294 303 280 241 238 238 229 220 210 213 222 228 232 234 247 256 278 301 327 347 356 4 12 15 9 9 11 7 8 3 0
345 92 133 230 251 295 292 278 332 304 316 250 297 267 309 108 234 219 224 221 215 207 204 213 220 225 229 235 241 253 270 293 315 330 340 346 343 343 347 343 348 350 358 356
271 140 203 220 269 267 303 199 292 305 321 310 355 302 263 227 251 231 220 215 210 202 201 208 214 222 225 231 239 244 254 274 299 306 307 307 309 310 312 317 329 342 344 346
108 190 201 234 244 196 313 303 303 295 282 304 178 262 282 284 251 236 221 211 205 198 200 206 210 216 225 233 242 250 257 267 271 278 288 298 302 305 310 319 326 327 327 330
286 221 232 305 186 222 307 276 256 210 244 249 98 298 292 250 258 294 230 211 202 198 200 202 206 214 224 229 237 248 254 259 269 276 282 284 287 295 302 308 310 312 316 322
203 200 182 214 254 199 298 303 301 277 240 303 129 241 267 272 255 268 267 198 195 205 206 207 212 222 231 235 240 246 253 258 264 268 273 273 280 288 293 297 299 301 305 309
287 263 187 164 278 320 23 323 289 296 303 306 153 235 262 323 317 239 190 187 200 204 206 214 223 232 239 243 247 248 252 256 260 264 266 270 275 276 279 284 291 298 302 307
224 246 123 121 138 261 142 220 29 280 232 280 222 249 280 282 257 225 223 217 212 198 201 207 220 234 242 247 251 253 254 258 262 264 264 264 267 268 270 280 288 295 302 306
192 278 160 117 140 78 259 133 207 205 281 294 286 296 262 265 257 218 225 223 208 203 202 204 217 233 247 253 253 251 254 258 260 261 261 259 260 262 267 274 287 297 302 303
176 238 143 186 204 190 160 195 197 288 238 271 294 298 147 308 311 302 277 227 208 206 209 217 224 243 259 264 262 259 258 257 258 256 254 255 254 256 265 279 293 300 304 304
188 236 251 249 102 31 268 221 196 226 231 240 286 271 288 279 276 271 277 222 208 206 214 222 237 249 272 267 263 259 253 250 248 250 250 251 255 258 265 280 295 302 302 301
180 212 292 231 143 54 241 211 216 269 22 235 255 264 163 213 275 261 245 224 211 217 220 228 239 237 238 255 272 268 251 247 246 244 247 250 252 254 265 286 300 300 298 296
179 231 243 258 273 261 237 226 225 209 220 258 242 273 286 288 281 288 255 230 218 214 215 219 231 241 268 287 277 269 257 248 245 244 244 244 248 258 272 294 300 298 297 293
159 253 252 255 267 275 272 274 265 227 241 247 272 280 281 287 303 303 299 251 210 198 202 224 234 285 287 302 298 282 260 245 239 237 239 245 254 263 281 296 298 296 293 289
174 238 221 262 264 261 272 265 260 255 258 256 261 272 277 296 333 332 319 243 200 173 175 262 316 343 339 320 305 280 255 239 236 240 245 252 258 273 288 294 294 290 287 284
174 208 202 258 279 302 280 264 240 217 226 238 268 304 347 332 330 356 7 86 126 125 274 346 345 338 330 322 311 286 255 243 239 245 256 264 271 282 289 290 287 286 283 281
183 192 206 272 288 255 279 9 259 238 47 18 346 348 343 340 9 33 23 27 47 34 5 350 340 333 326 317 294 273 262 256 259 261 265 273 281 284 283 284 284 283 280 279
222 204 236 240 222 303 297 32 9 14 83 19 343 355 351 338 304 46 20 19 6 355 349 346 339 328 317 304 294 285 281 277 273 273 275 276 278 280 283 283 282 280 279 277
193 232 211 187 237 249 58 9 351 326 193 15 9 2 357 360 314 31 352 348 346 342 339 339 333 320 304 297 292 287 286 284 279 277 275 275 280 282 282 283 283 282 279 276
165 182 224 238 262 226 355 318 318 245 1 7 13 4 359 21 4 334 346 349 344 339 330 325 328 318 308 305 302 300 294 286 280 278 278 281 282 282 283 283 283 281 277 276
236 195 225 213 234 247 354 49 8 346 356 5 4 2 1 3 351 351 353 349 336 329 324 317 322 316 310 309 306 300 293 283 282 281 283 284 284 284 284 283 283 278 275 273
245 312 331 40 52 61 42 63 43 13 9 2 358 357 4 358 353 351 351 342 334 327 321 317 319 316 313 308 305 299 291 288 287 286 287 287 287 286 285 283 280 275 271 267
63 16 53 166 48 86 59 35 32 11 11 9 3 357 354 346 342 343 340 336 332 327 322 318 317 314 309 305 302 297 295 294 292 291 291 291 289 287 284 281 277 271 264 263
349 340 352 85 34 155 41 19 8 359 2 0 355 351 346 344 340 339 336 332 329 325 321 320 315 309 305 305 304 302 300 297 294 293 292 291 288 286 284 280 277 272 269 265
5 7 18 24 5 300 308 348 353 357 353 353 341 341 341 336 332 332 328 327 326 324 316 315 312 308 308 307 305 303 304 299 294 293 293 290 287 286 284 282 279 273 268 263